TimeMST,TemperatureF,Dew PointF,Humidity,Sea Level PressureIn,VisibilityMPH,Wind Direction,Wind SpeedMPH,Gust SpeedMPH,PrecipitationIn,Events,Conditions,WindDirDegrees,DateUTC
12:53 AM,-0.0,-7.1,72,30.60,10.0,Calm,Calm,-,N/A,,Clear,0,2013-01-04 07:53:00
1:53 AM,1.9,-5.1,72,30.57,10.0,Calm,Calm,-,N/A,,Clear,0,2013-01-04 08:53:00
2:53 AM,-0.0,-7.1,72,30.57,10.0,Calm,Calm,-,N/A,,Clear,0,2013-01-04 09:53:00
3:53 AM,-0.9,-7.1,75,30.57,10.0,Calm,Calm,-,N/A,,Clear,0,2013-01-04 10:53:00
4:53 AM,1.0,-6.0,72,30.59,10.0,Calm,Calm,-,N/A,,Clear,0,2013-01-04 11:53:00
5:53 AM,-2.0,-7.1,79,30.63,10.0,Calm,Calm,-,N/A,,Clear,0,2013-01-04 12:53:00
6:53 AM,-2.9,-8.0,79,30.64,10.0,SSW,3.5,-,N/A,,Clear,210,2013-01-04 13:53:00
7:53 AM,-5.1,-11.0,76,30.66,10.0,East,6.9,-,N/A,,Clear,100,2013-01-04 14:53:00
8:53 AM,-0.0,-6.0,76,30.65,10.0,Calm,Calm,-,N/A,,Clear,0,2013-01-04 15:53:00
9:53 AM,3.0,-4.0,73,30.66,10.0,Calm,Calm,-,N/A,,Clear,0,2013-01-04 16:53:00
10:53 AM,10.0,-0.0,64,30.61,10.0,Calm,Calm,-,N/A,,Clear,0,2013-01-04 17:53:00
11:53 AM,15.1,1.9,56,30.55,10.0,Calm,Calm,-,N/A,,Clear,0,2013-01-04 18:53:00
12:53 PM,19.9,1.0,44,30.48,10.0,Calm,Calm,-,N/A,,Clear,0,2013-01-04 19:53:00
1:53 PM,19.9,1.9,46,30.44,10.0,Calm,Calm,-,N/A,,Clear,0,2013-01-04 20:53:00
2:53 PM,21.9,3.0,44,30.42,10.0,Calm,Calm,-,N/A,,Clear,0,2013-01-04 21:53:00
3:53 PM,21.9,3.0,44,30.42,10.0,Calm,Calm,-,N/A,,Clear,0,2013-01-04 22:53:00
4:53 PM,15.1,1.9,56,30.46,10.0,South,4.6,-,N/A,,Clear,190,2013-01-04 23:53:00
5:53 PM,10.0,-0.9,61,30.51,10.0,South,5.8,-,N/A,,Clear,190,2013-01-05 00:53:00
6:53 PM,8.1,-2.0,64,30.53,10.0,SE,3.5,-,N/A,,Clear,140,2013-01-05 01:53:00
7:53 PM,6.1,-2.9,67,30.56,10.0,Calm,Calm,-,N/A,,Clear,0,2013-01-05 02:53:00
8:53 PM,1.9,-5.1,72,30.57,10.0,Calm,Calm,-,N/A,,Clear,0,2013-01-05 03:53:00
10:53 PM,1.0,-6.0,72,30.56,10.0,East,3.5,-,N/A,,Clear,90,2013-01-05 05:53:00
11:53 PM,-0.0,-6.0,76,30.54,10.0,Calm,Calm,-,N/A,,Clear,0,2013-01-05 06:53:00